Tracking 29892 objects as of 21-Nov-2024
HD Live streaming from Space Station
objects crossing your sky now

STARLINK-31053

Track STARLINK-31053 now!
10-day predictions
STARLINK-31053 is classified as:


NORAD ID: 58549
Int'l Code: 2023-192U
Perigee: 481.7 km
Apogee: 483.1 km
Inclination: 53.2 °
Period: 94.1 minutes
Semi major axis: 6853 km
RCS: Unknown
Launch date: December 8, 2023
Source: United States (US)
Launch site: AIR FORCE WESTERN TEST RANGE (AFWTR)
Your satellite tracking list
Your tracking list is empty




NASA's NSSDC Master Catalog

Two Line Element Set (TLE):
1 58549U 23192U   24325.77987051  .00000359  00000-0  24257-4 0  9999
2 58549  53.1610 104.2834 0000991 102.1503 257.9609 15.30191226 53424
Source of the keplerian elements: AFSPC